Observations for Trim Market St
| Time | AQI | Temp °C | Hum % | Pres Pa | CO μg/m³ | H₂S μg/m³ | NO μg/m³ | NO₂ μg/m³ | O₃ μg/m³ | SO₂ μg/m³ | PM1 μg/m³ | PM2.5 μg/m³ | PM10 μg/m³ |
|---|---|---|---|---|---|---|---|---|---|---|---|---|---|
| Tuesday 25 August 2026 | |||||||||||||
| 02:52 | 2 | 16.1 | 74 | 49,359 | 0.28 | 0 | 1.31 | 9.9 | 45.61 | 0 | 0.71 | 2.88 | 5.11 |
| 02:51 | 2 | 16.1 | 74 | 49,277 | 0.29 | 0 | 1.38 | 11.02 | 40.43 | 0 | 1.43 | 2.88 | 5.11 |
| 02:50 | 2 | 16.2 | 74 | 49,235 | 0.28 | 0 | 1.33 | 10.86 | 41.8 | 0 | 1.43 | 2.88 | 6.93 |
| 02:49 | 2 | 16.2 | 74 | 49,113 | 0.29 | 0 | 1.37 | 9.04 | 49.95 | 0 | 0.71 | 2.88 | 5.71 |
| 02:46 | 2 | 16.1 | 74 | 48,977 | 0.29 | 0 | 1.45 | 10.3 | 45.73 | 0 | 0 | 1.92 | 3.9 |
| 02:45 | 2 | 16.2 | 74 | 48,879 | 0.28 | 0 | 1.43 | 10.48 | 45.55 | 0 | 0.71 | 1.92 | 4.51 |
| 02:44 | 2 | 16.2 | 74 | 48,823 | 0.29 | 0 | 1.52 | 12.05 | 42.64 | 0 | 0.71 | 2.4 | 4.51 |
| 02:43 | 2 | 16.2 | 74 | 48,752 | 0.29 | 0 | 1.54 | 9.89 | 44.42 | 0 | 0.71 | 1.92 | 4.51 |
| 02:42 | 2 | 16.2 | 74 | 48,681 | 0.29 | 0 | 1.45 | 11.71 | 44.73 | 0 | 0.71 | 2.4 | 5.11 |
| 02:41 | 2 | 16.2 | 74 | 48,616 | 0.3 | 0 | 1.4 | 11.07 | 42.24 | 0 | 1.43 | 2.88 | 5.11 |
| 02:39 | 2 | 16.2 | 74 | 48,373 | 0.3 | 0 | 1.38 | 11.19 | 40.9 | 0 | 0.71 | 3.35 | 6.32 |
| 02:37 | 2 | 16.2 | 74 | 48,192 | 0.3 | 0 | 1.46 | 10.15 | 46.7 | 0 | 1.43 | 3.35 | 5.72 |
| 02:36 | 2 | 16.2 | 74 | 48,066 | 0.3 | 0 | 1.37 | 15.23 | 42.59 | 0 | 0.71 | 2.39 | 4.51 |
| 02:35 | 2 | 16.2 | 74 | 47,957 | 0.31 | 0 | 1.33 | 11.89 | 45.84 | 0 | 0.71 | 2.39 | 5.72 |
| 02:27 | 2 | 16.2 | 74 | 46,526 | 0.32 | 0 | 1.17 | 12.9 | 43.31 | 0 | 2.14 | 3.33 | 5.73 |
| 02:24 | 2 | 16.2 | 74 | 45,664 | 0.32 | 0 | 1.3 | 12.61 | 43.87 | 0 | 1.43 | 2.85 | 5.73 |
| 02:22 | 2 | 16.1 | 74 | 44,929 | 0.32 | 0 | 1.46 | 13.67 | 42.7 | 0 | 0 | 2.36 | 5.13 |
| 02:19 | 2 | 16.1 | 74 | 43,820 | 0.33 | 0 | 1.4 | 16.12 | 40.1 | 0 | 1.43 | 2.84 | 5.13 |
| 02:16 | 2 | 16.1 | 75 | 43,045 | 0.32 | 0 | 1.5 | 18.11 | 42.34 | 0 | 1.43 | 3.32 | 6.33 |
| 02:15 | 2 | 16.1 | 75 | 42,821 | 0.32 | 0 | 1.5 | 19.26 | 41.33 | 0 | 1.43 | 3.32 | 6.33 |